Tracking 21076 objects as of 10-Aug-2020
HD Live streaming from Space Station
objects crossing your sky now
Track the most recent launched group of Starlink satellites

SL-8 DEB

Track SL-8 DEB now!
10-day predictions


NORAD ID: 21161
Int'l Code: 1991-009Y
Perigee: 1,497.0 km
Apogee: 1,707.4 km
Inclination: 74.1 °
Period: 118.1 minutes
Semi major axis: 7973 km
RCS: 0.2642 m2 (medium)
Launch date: February 12, 1991
Source: Commonwealth of Independent States (former USSR) (CIS)
Launch site: PLESETSK MISSILE AND SPACE COMPLEX (PKMTR)

Note: This is SATELLITE DEBRIS
aabbcc
Your satellite tracking list
Your tracking list is empty




NASA's NSSDC Master Catalog

Two Line Element Set (TLE):
1 21161U 91009Y   20222.74606495 -.00000022  00000-0 -82839-4 0  9999
2 21161  74.0725  32.6575 0131939  66.2055 305.8002 12.19417480310353
Source of the keplerian elements: AFSPC